Temperature
7 7 7 7 7 7 7 8 8 9 9 10 11 10 10 9 8 8 7 7 7 7 7 7 7 7 6 6 6 5 5 5 5 4 4 4 4 3 3 3 3 3 3 3
6 6 6 6 6 7 7 7 8 8 9 11 10 9 8 8 8 7 7 7 7 7 7 7 7 7 6 6 6 5 5 5 5 4 4 4 4 3 3 3 3 3 2 2
7 6 6 7 8 7 7 7 8 8 9 10 9 9 8 8 7 7 7 7 7 7 7 7 7 7 6 6 5 5 5 5 4 4 4 3 3 3 3 3 2 2 2 2
6 6 7 10 7 7 7 7 8 8 9 9 8 7 7 7 7 7 7 7 7 7 7 7 7 6 6 6 5 5 5 5 4 4 4 3 3 3 2 2 2 2 2 1
5 6 7 9 7 6 7 8 8 8 8 8 7 6 7 7 7 7 7 7 7 7 7 7 6 6 6 6 5 5 5 4 4 4 3 3 3 2 2 2 2 1 1 1
5 5 7 10 7 6 7 9 9 7 8 7 6 8 10 7 7 7 7 6 6 6 6 6 6 6 6 5 5 5 4 4 4 3 3 3 2 2 2 1 1 1 1 0
5 5 7 8 6 6 8 10 8 7 7 6 7 8 7 7 6 6 6 6 6 6 6 6 6 5 5 5 5 5 4 4 4 3 3 2 2 2 1 1 1 1 0 -0
5 5 7 7 5 7 9 7 6 6 6 6 6 6 6 6 6 6 6 6 6 5 5 5 5 5 5 5 4 4 4 3 3 3 3 2 2 1 1 1 0 0 -0 -1
6 8 8 6 7 7 6 6 6 5 5 5 5 5 5 5 5 5 5 5 5 5 5 5 5 5 5 4 4 4 3 3 3 2 2 2 1 1 0 0 -0 -1 -1 -1
5 6 7 6 6 5 5 5 5 5 5 5 4 4 4 4 5 5 5 5 4 4 4 4 4 4 4 4 4 3 3 3 2 2 2 1 1 0 -0 -0 -1 -1 -1 -2
4 6 6 6 6 6 5 5 4 4 4 4 4 4 4 4 4 4 4 4 4 4 4 4 4 4 4 3 3 3 2 2 2 2 1 1 0 -0 -0 -1 -1 -1 -2 -2
6 7 6 6 5 5 4 4 4 4 3 3 3 3 3 3 4 3 3 4 4 4 4 4 4 3 3 3 3 2 2 2 2 1 1 0 -0 -1 -1 -1 -2 -2 -2 -2
5 5 4 4 4 4 3 3 3 3 3 3 3 3 3 3 3 3 3 3 3 3 3 3 3 3 3 3 2 2 2 2 1 1 0 -0 -0 -1 -1 -2 -2 -2 -3 -3
4 3 3 3 3 3 3 2 2 2 3 2 2 3 3 2 2 3 3 3 3 3 3 3 3 3 3 2 2 2 2 1 1 1 0 -0 -1 -1 -2 -2 -2 -3 -3 -3
3 2 2 2 2 2 2 2 2 2 2 2 2 2 2 2 2 2 2 2 2 2 3 3 3 2 2 2 2 1 1 1 1 0 -0 -1 -1 -2 -2 -2 -3 -3 -3 -4
2 2 2 2 2 2 2 2 2 2 2 2 2 2 2 2 2 2 2 2 2 2 2 2 2 2 2 1 1 1 1 0 0 -0 -1 -1 -2 -2 -2 -3 -3 -3 -4 -4
1 1 2 2 2 2 2 2 1 2 2 2 2 2 2 2 2 2 2 2 2 2 2 2 2 2 1 1 1 1 0 -0 -1 -1 -1 -2 -2 -3 -3 -3 -3 -4 -4 -4
2 2 1 1 1 1 2 2 2 2 2 2 2 2 2 2 2 2 2 2 2 2 2 2 1 1 1 1 0 -0 -0 -1 -1 -1 -2 -2 -2 -3 -3 -4 -4 -4 -4 -5
2 2 2 2 1 2 2 2 2 2 2 2 1 1 1 1 2 2 2 2 2 2 2 1 1 1 1 0 -0 -0 -1 -1 -1 -2 -2 -2 -3 -3 -3 -4 -4 -5 -5 -5
2 2 2 2 2 2 2 2 1 2 2 1 1 1 1 1 1 1 1 1 1 1 1 1 1 1 0 0 -0 -1 -1 -1 -2 -2 -2 -3 -3 -3 -4 -4 -4 -5 -5 -5
1 1 1 1 1 1 1 1 1 1 1 1 1 1 1 1 1 1 1 1 1 1 1 1 1 0 0 -0 -1 -1 -1 -2 -2 -2 -2 -3 -3 -4 -4 -4 -5 -5 -5 -6
1 1 1 1 1 1 1 1 1 1 1 1 1 1 1 1 1 1 1 1 1 0 0 0 0 0 -0 -1 -1 -1 -2 -2 -2 -2 -3 -3 -4 -4 -4 -5 -5 -5 -5 -6
1 1 1 1 1 1 1 1 1 1 1 1 1 1 1 1 1 0 1 1 0 0 -0 -0 -0 -0 -1 -1 -1 -2 -2 -2 -2 -3 -3 -3 -4 -4 -4 -5 -5 -5 -6 -6
0 0 0 0 0 0 0 1 1 1 0 1 1 0 0 0 0 0 0 0 -0 -0 -0 -0 -1 -1 -1 -2 -2 -2 -2 -2 -3 -3 -3 -4 -4 -4 -5 -5 -5 -6 -6 -6
-0 -0 -0 -0 -0 -0 -0 0 0 0 0 0 0 0 0 0 0 0 -0 -0 -1 -1 -1 -1 -1 -2 -2 -2 -2 -2 -3 -3 -3 -3 -4 -4 -4 -4 -5 -5 -6 -6 -6 -6
-1 -1 -1 -1 -1 -0 -0 -0 -0 -0 -0 -0 0 0 0 -0 -0 -0 -0 -1 -1 -1 -1 -2 -2 -2 -2 -2 -2 -3 -3 -3 -3 -4 -4 -4 -4 -5 -5 -5 -6 -6 -6 -6
-1 -1 -1 -1 -0 -0 -0 -1 -1 -1 -1 -1 -1 -0 -0 -0 -1 -1 -1 -1 -1 -1 -2 -2 -2 -2 -2 -3 -3 -3 -3 -3 -4 -4 -4 -4 -5 -5 -5 -6 -6 -6 -6 -7
Wind_Speed
10 10 9 12 13 13 15 14 11 11 13 16 13 12 12 11 10 9 9 9 8 8 8 7 7 7 7 7 6 6 6 6 5 4 4 3 2 2 1 1 1 1 2 2
7 6 9 13 17 18 18 19 20 21 21 17 13 10 11 11 10 10 10 10 9 9 9 8 8 7 7 7 6 6 7 6 5 5 4 4 3 2 2 1 1 1 1 2
5 6 9 10 11 13 11 12 13 16 13 11 10 10 10 10 10 10 10 10 9 9 9 8 8 7 8 7 6 7 7 6 6 6 5 4 3 3 3 2 1 1 1 1
5 7 6 1 2 5 10 12 14 15 15 12 12 11 11 11 11 10 10 9 9 8 8 8 7 7 6 6 7 7 7 7 6 6 6 5 5 4 3 3 2 2 1 1
3 6 9 7 3 4 6 7 9 13 14 12 8 8 7 6 7 8 9 9 8 8 8 7 6 6 6 6 7 7 8 7 7 7 7 6 6 5 4 3 3 2 2 2
4 5 6 2 2 2 3 4 1 5 7 6 4 6 6 4 6 8 8 7 7 6 7 7 6 5 6 7 7 8 8 7 7 7 7 7 7 5 4 4 3 2 2 2
9 8 9 5 2 4 3 3 2 3 5 5 6 8 9 9 9 8 8 8 6 6 6 6 5 6 7 7 9 8 6 6 7 7 7 7 6 5 5 4 4 3 3 3
7 8 8 4 6 6 4 4 5 6 7 8 10 12 12 11 10 9 8 8 7 6 6 5 5 6 8 8 7 5 5 6 7 7 6 6 6 6 5 5 5 4 4 3
9 9 4 4 7 6 5 7 8 9 10 11 12 13 13 12 11 10 9 8 7 7 6 5 5 7 8 7 5 5 6 7 6 6 6 6 7 6 6 5 4 4 4 3
9 13 13 13 13 13 12 12 12 12 13 13 14 14 14 12 11 10 9 8 7 7 7 7 6 7 8 6 5 6 7 6 6 6 6 6 6 6 5 5 5 5 4 4
12 14 14 11 10 10 11 11 12 13 13 14 14 15 14 13 12 10 9 8 7 7 8 8 7 7 6 5 6 7 7 6 6 6 6 6 6 6 6 6 5 5 4 4
12 11 10 12 11 12 13 14 15 15 15 14 13 14 14 13 11 10 9 8 7 8 8 8 7 7 6 6 7 7 7 6 6 6 6 6 5 5 6 6 7 8 6 5
15 14 14 16 16 14 15 15 15 15 15 15 13 12 12 12 10 9 9 9 9 9 9 8 7 7 6 6 7 8 7 7 6 6 6 6 6 5 5 5 7 8 8 8
15 14 15 14 14 14 14 15 14 14 13 12 11 11 10 10 10 10 10 9 9 8 8 7 7 8 6 6 7 8 7 7 7 6 6 6 6 6 5 5 5 5 6 8
12 12 14 15 15 14 12 11 12 12 11 10 9 9 9 10 10 10 10 8 7 8 8 7 8 8 6 7 8 8 7 6 6 6 6 6 5 5 5 5 5 4 4 5
10 11 12 13 14 13 11 11 11 12 11 10 10 10 10 10 10 10 9 7 7 9 8 8 8 7 6 7 7 6 6 8 7 6 5 5 5 6 5 5 5 5 5 4
9 10 9 10 11 12 11 10 10 11 10 10 10 10 9 9 9 9 8 7 8 9 8 8 8 6 6 7 7 6 5 7 9 6 6 6 6 6 6 6 6 5 5 5
9 10 10 11 10 11 11 10 9 9 9 9 9 9 8 8 9 9 8 7 7 8 8 8 6 6 7 7 7 5 6 6 6 6 6 6 6 6 6 6 6 6 5 5
7 8 9 9 9 9 10 10 10 9 9 8 8 9 9 9 9 9 7 7 8 8 6 6 7 7 7 8 7 6 6 6 6 6 5 7 6 6 6 6 6 6 5 5
6 6 7 8 8 7 9 9 10 10 9 7 8 8 9 9 8 7 7 8 8 6 4 5 7 7 7 8 9 6 7 7 7 6 6 6 6 6 6 6 6 6 5 5
7 7 8 9 9 9 9 9 9 10 9 8 8 9 9 9 8 6 7 8 7 6 6 7 6 6 6 7 9 6 7 7 7 6 6 6 6 6 6 6 6 6 5 5
7 8 9 10 10 11 9 8 8 10 10 9 9 9 9 9 8 7 8 8 7 6 5 5 5 7 8 9 7 7 7 7 7 6 6 6 6 6 6 6 6 6 5 5
9 10 10 11 11 12 11 10 9 9 9 10 9 9 9 9 7 7 8 6 5 7 6 6 7 10 11 8 6 7 7 7 7 7 7 7 6 6 6 6 6 6 5 5
11 11 11 11 10 11 13 12 10 9 10 10 10 10 9 8 7 7 8 7 7 8 6 7 10 11 11 7 6 7 7 7 7 7 6 6 6 6 6 6 6 5 5 6
12 12 11 11 11 11 11 11 10 10 10 9 10 10 9 8 8 7 6 7 8 8 6 8 11 11 8 6 7 7 7 7 7 7 7 6 6 6 6 6 6 5 5 5
12 12 12 12 11 11 10 9 9 9 8 9 9 8 7 6 7 7 7 7 8 8 7 5 6 8 7 7 7 7 7 7 7 7 7 7 7 7 6 6 7 6 5 5
12 12 11 11 11 10 9 9 10 10 9 9 9 8 7 7 6 7 7 6 6 6 6 5 5 6 6 7 7 7 6 6 6 7 7 6 6 6 6 7 6 5 5 5
Wind_Direction
267 270 262 257 249 230 225 231 245 258 265 274 282 285 286 286 282 275 268 262 257 254 252 246 241 237 234 232 224 217 219 225 230 231 230 231 233 233 240 265 297 323 336 345
278 268 264 263 254 243 240 241 248 263 274 280 288 281 278 280 277 271 269 267 263 259 256 250 244 239 231 228 220 213 218 223 223 220 218 219 222 221 216 224 276 319 337 350
282 305 296 269 249 226 222 224 233 248 258 280 285 283 283 286 280 273 273 274 269 262 255 251 245 236 231 226 213 211 218 219 215 214 214 213 211 215 219 221 223 238 284 332
294 313 263 261 136 218 231 248 235 247 263 277 286 294 290 279 274 277 280 276 271 264 258 254 247 236 230 219 210 211 216 217 213 211 213 208 206 213 219 221 224 234 257 297
272 289 282 289 235 205 228 271 241 244 263 280 297 297 282 266 259 274 283 281 278 270 263 256 246 233 222 217 213 215 219 218 212 209 209 206 206 208 208 211 218 224 237 262
240 265 265 303 129 169 226 274 255 238 269 291 297 300 317 334 300 289 290 287 282 276 265 255 244 226 219 220 218 222 223 219 211 207 208 209 207 203 200 206 215 216 226 244
233 248 268 272 168 164 241 339 9 282 282 280 269 286 308 311 305 297 295 294 286 274 262 254 239 220 224 226 228 228 221 211 206 205 208 208 203 199 196 198 203 210 222 233
208 226 254 175 159 208 286 333 309 298 293 287 283 289 294 296 295 294 294 292 282 270 265 258 233 222 229 233 233 221 210 208 208 206 202 198 197 195 196 197 202 209 218 230
213 233 274 191 227 263 292 289 293 293 293 292 290 289 291 290 289 288 285 284 277 266 266 256 233 227 236 238 221 208 207 209 208 202 200 196 198 196 194 198 207 212 217 227
254 262 269 272 271 272 272 274 283 286 288 287 285 286 287 286 284 282 279 276 273 264 260 258 244 236 241 236 212 206 210 210 204 200 199 197 199 200 201 202 207 212 217 225
255 272 286 277 270 281 287 287 288 288 284 281 282 282 283 284 282 278 274 271 265 258 259 260 251 242 236 222 207 207 210 207 202 201 199 197 200 204 208 212 213 213 217 220
258 270 275 285 293 295 292 292 293 293 291 286 279 279 281 280 279 276 272 269 263 258 258 260 252 244 232 215 206 205 207 206 202 198 196 196 195 200 213 220 220 224 228 228
265 281 282 285 289 288 287 291 292 290 288 287 285 281 279 278 277 274 269 265 261 260 260 259 251 245 231 213 207 208 210 205 200 197 196 195 195 198 202 207 218 224 225 227
266 276 280 281 287 291 291 292 292 289 285 282 283 283 280 277 276 270 267 265 264 263 260 254 248 245 229 211 207 211 210 205 200 199 195 195 196 201 203 201 202 211 217 224
267 263 270 284 289 291 292 294 293 291 290 289 286 282 278 276 274 273 272 270 265 260 256 250 247 245 221 207 207 208 205 202 199 196 193 192 193 197 201 205 210 212 210 215
285 282 278 280 284 290 295 293 289 290 292 291 289 285 281 278 276 276 273 264 257 256 253 247 246 242 216 207 205 204 204 197 192 191 189 189 192 196 199 203 208 212 216 216
278 285 287 291 293 296 294 291 286 287 289 288 289 291 288 283 279 275 272 264 257 260 257 248 246 232 209 206 202 200 197 194 190 192 194 194 197 201 203 205 209 214 218 214
261 269 277 280 287 293 296 296 290 287 284 286 291 290 283 278 276 278 280 276 267 265 257 245 234 218 209 204 200 196 192 192 193 197 196 197 200 201 204 208 212 216 218 215
278 274 279 280 281 282 285 290 290 287 285 286 286 283 281 277 276 278 278 269 263 265 260 229 213 209 208 202 192 194 192 190 192 196 197 199 201 202 203 207 211 214 214 212
290 289 290 291 289 281 282 287 290 289 286 283 282 283 283 281 279 276 271 265 258 258 253 227 215 212 208 200 191 194 194 194 194 194 195 198 201 204 205 208 211 213 214 215
298 298 298 297 296 291 286 286 286 286 288 282 274 275 278 282 280 272 269 274 271 246 238 228 219 214 205 197 192 195 194 196 196 196 196 199 201 203 205 207 208 211 213 215
291 292 293 295 296 297 295 288 281 280 282 279 275 274 277 279 278 271 259 260 271 250 237 230 222 213 204 195 195 196 197 197 198 198 199 200 201 203 205 207 209 209 211 214
287 287 288 288 288 291 293 288 281 278 276 275 274 271 269 269 268 266 273 263 255 248 242 236 224 213 205 199 197 197 199 199 199 200 201 201 202 204 205 207 209 208 209 211
281 281 281 283 285 285 286 287 282 275 272 273 269 265 263 268 268 254 254 263 257 252 248 236 226 219 209 204 200 200 202 203 202 202 201 200 201 201 202 203 205 208 209 210
275 276 276 277 278 278 277 281 283 279 275 273 272 267 258 250 255 267 266 261 256 254 251 239 231 221 211 207 204 203 204 205 202 198 199 199 200 201 202 201 203 205 206 210
271 274 275 272 270 273 275 275 275 276 275 276 277 272 265 258 255 258 260 258 254 250 245 239 226 217 211 206 205 205 204 205 206 205 201 200 202 201 201 201 203 205 207 209
269 271 273 275 271 264 261 261 263 266 265 264 272 274 269 265 260 256 254 253 250 243 238 230 220 214 210 206 205 204 202 201 201 201 198 200 200 202 200 199 201 202 204 207
Height
1524 1523 1523 1520 1518 1519 1519 1513 1509 1498 1497 1491 1492 1493 1493 1492 1491 1490 1489 1489 1488 1487 1487 1486 1486 1485 1484 1484 1483 1482 1481 1481 1480 1479 1478 1477 1476 1475 1473 1472 1471 1470 1468 1467
1523 1520 1520 1517 1512 1512 1511 1509 1503 1499 1493 1488 1489 1490 1489 1488 1487 1486 1485 1484 1484 1483 1483 1482 1481 1481 1480 1480 1479 1478 1478 1477 1476 1475 1475 1474 1473 1472 1471 1470 1469 1467 1466 1465
1517 1517 1515 1504 1497 1500 1502 1499 1498 1495 1488 1486 1487 1487 1486 1485 1484 1482 1481 1480 1479 1478 1478 1477 1477 1476 1476 1476 1475 1474 1474 1473 1473 1472 1471 1471 1470 1469 1468 1467 1466 1465 1464 1462
1521 1517 1510 1493 1497 1496 1496 1493 1493 1489 1486 1486 1485 1484 1482 1481 1480 1478 1477 1476 1475 1474 1473 1472 1472 1472 1471 1471 1470 1470 1469 1469 1469 1468 1468 1467 1466 1466 1465 1464 1463 1462 1461 1460
1523 1514 1500 1491 1494 1495 1495 1488 1486 1486 1484 1484 1484 1482 1478 1477 1476 1475 1474 1472 1471 1470 1468 1468 1467 1467 1466 1466 1466 1465 1465 1465 1464 1464 1464 1463 1463 1462 1462 1461 1460 1459 1458 1457
1522 1517 1501 1488 1493 1494 1495 1485 1483 1484 1483 1483 1483 1478 1475 1474 1473 1471 1470 1468 1467 1465 1464 1463 1462 1462 1461 1461 1461 1460 1460 1460 1460 1460 1459 1459 1459 1459 1458 1458 1457 1456 1455 1454
1518 1513 1495 1489 1492 1494 1490 1481 1483 1482 1482 1481 1480 1477 1475 1472 1470 1468 1466 1464 1463 1461 1459 1458 1458 1457 1456 1456 1456 1456 1456 1455 1455 1455 1455 1455 1455 1455 1454 1454 1453 1453 1452 1451
1512 1510 1496 1487 1489 1488 1483 1482 1481 1480 1480 1478 1476 1473 1471 1468 1466 1464 1462 1460 1458 1456 1455 1454 1452 1452 1451 1450 1451 1451 1450 1450 1450 1450 1450 1450 1450 1450 1450 1450 1450 1449 1448 1448
1497 1490 1484 1484 1483 1482 1481 1480 1479 1477 1476 1474 1471 1468 1466 1463 1461 1459 1457 1455 1453 1452 1450 1449 1448 1447 1446 1446 1445 1445 1445 1445 1446 1446 1446 1446 1446 1446 1446 1446 1446 1445 1445 1444
1494 1484 1481 1481 1480 1479 1478 1476 1474 1473 1471 1468 1465 1463 1460 1458 1456 1454 1452 1450 1448 1447 1445 1444 1443 1442 1441 1441 1440 1440 1440 1440 1440 1441 1441 1441 1441 1441 1441 1441 1441 1441 1441 1440
1487 1480 1478 1475 1475 1474 1472 1471 1469 1467 1464 1462 1459 1456 1454 1452 1450 1448 1446 1444 1443 1441 1439 1438 1437 1437 1436 1435 1435 1435 1435 1435 1435 1436 1436 1436 1437 1437 1437 1437 1438 1438 1437 1437
1476 1474 1475 1471 1470 1469 1467 1464 1462 1460 1457 1454 1453 1450 1448 1445 1443 1442 1440 1438 1437 1435 1434 1433 1432 1431 1431 1430 1430 1430 1430 1430 1430 1431 1431 1431 1432 1432 1432 1433 1433 1433 1433 1433
1472 1470 1469 1466 1465 1463 1461 1458 1455 1453 1450 1447 1445 1443 1441 1438 1437 1435 1434 1433 1431 1430 1429 1428 1426 1426 1425 1425 1425 1425 1425 1425 1426 1426 1426 1427 1427 1427 1428 1428 1429 1428 1428 1428
1467 1466 1462 1460 1458 1456 1454 1451 1448 1446 1443 1441 1439 1437 1435 1433 1431 1429 1428 1427 1426 1424 1423 1422 1421 1420 1420 1420 1420 1420 1420 1421 1421 1421 1422 1422 1423 1423 1424 1424 1424 1424 1424 1424
1461 1460 1458 1454 1452 1449 1447 1445 1442 1439 1437 1435 1433 1431 1429 1427 1425 1424 1423 1421 1420 1419 1418 1416 1416 1415 1415 1414 1414 1415 1415 1416 1416 1417 1417 1418 1419 1419 1419 1420 1420 1420 1420 1420
1455 1454 1451 1449 1446 1444 1441 1439 1437 1434 1432 1429 1427 1425 1423 1422 1420 1419 1417 1416 1414 1413 1412 1411 1410 1410 1409 1409 1409 1409 1410 1411 1411 1412 1412 1413 1414 1414 1415 1415 1416 1416 1416 1416
1450 1447 1445 1443 1441 1439 1437 1435 1432 1429 1427 1425 1423 1421 1419 1416 1415 1413 1412 1411 1409 1408 1407 1406 1405 1405 1404 1404 1404 1404 1405 1406 1407 1407 1408 1408 1409 1410 1411 1411 1411 1412 1412 1412
1445 1443 1441 1439 1437 1434 1432 1430 1428 1425 1423 1421 1418 1416 1414 1412 1410 1409 1407 1406 1404 1403 1402 1401 1400 1400 1399 1399 1399 1400 1400 1401 1402 1403 1404 1404 1405 1406 1406 1407 1407 1407 1407 1408
1440 1439 1437 1435 1433 1431 1428 1426 1423 1421 1419 1417 1414 1412 1410 1408 1406 1404 1403 1401 1399 1398 1397 1396 1396 1395 1395 1395 1395 1395 1396 1397 1397 1398 1399 1400 1401 1401 1402 1402 1402 1403 1403 1403
1437 1436 1434 1432 1429 1427 1424 1422 1419 1417 1415 1413 1410 1408 1406 1404 1402 1400 1398 1396 1395 1394 1393 1392 1391 1390 1390 1390 1391 1391 1392 1392 1393 1394 1395 1396 1396 1397 1397 1398 1398 1398 1399 1399
1433 1432 1430 1428 1425 1423 1420 1418 1415 1413 1411 1408 1406 1404 1401 1399 1398 1396 1393 1391 1390 1389 1388 1386 1386 1385 1385 1386 1386 1387 1387 1388 1389 1389 1390 1391 1392 1392 1393 1393 1394 1394 1394 1394
1429 1427 1425 1423 1420 1418 1416 1413 1411 1408 1405 1403 1401 1399 1397 1394 1392 1390 1388 1387 1385 1384 1382 1381 1381 1380 1381 1381 1381 1382 1383 1384 1384 1385 1386 1387 1387 1388 1388 1389 1389 1389 1390 1390
1424 1422 1420 1418 1415 1412 1410 1408 1405 1403 1400 1398 1396 1394 1391 1389 1387 1385 1382 1381 1380 1378 1377 1376 1376 1375 1376 1376 1376 1377 1378 1379 1380 1381 1381 1382 1383 1383 1384 1384 1385 1385 1385 1386
1418 1416 1413 1411 1409 1406 1403 1401 1399 1396 1394 1391 1390 1388 1386 1383 1381 1379 1377 1375 1374 1372 1371 1371 1370 1370 1370 1371 1371 1372 1373 1374 1375 1376 1377 1377 1378 1379 1379 1380 1380 1380 1381 1381
1410 1408 1406 1404 1401 1398 1396 1394 1391 1389 1387 1384 1383 1381 1379 1377 1375 1373 1371 1369 1368 1366 1365 1365 1365 1365 1365 1365 1366 1367 1368 1369 1370 1371 1371 1372 1373 1374 1374 1375 1375 1376 1376 1377
1402 1400 1397 1395 1393 1391 1389 1386 1384 1381 1379 1377 1375 1374 1372 1370 1369 1367 1365 1363 1362 1361 1360 1359 1359 1359 1360 1360 1361 1362 1363 1364 1365 1366 1367 1367 1368 1369 1369 1370 1371 1371 1372 1372
1392 1390 1388 1385 1383 1382 1380 1378 1376 1374 1372 1370 1368 1366 1365 1363 1362 1360 1359 1357 1356 1355 1354 1354 1353 1354 1354 1355 1356 1357 1358 1359 1360 1361 1362 1363 1364 1364 1365 1366 1367 1367 1368 1368